| time (UTC) | temp C | wind direction | speed KPH | gust KPH | rain 1hr cm | rain 24hr cm | rain mn cm | humidity % | barometer mb |
| 20260505082405 | 11 | 169 | 1.6 | 4.8 | 0.00 | 0.00 | 0.00 | 81 | 1007.7 |
| 20260505081905 | 11 | 173 | 0.0 | 3.2 | 0.00 | 0.00 | 0.00 | 81 | 1007.7 |
| 20260505081405 | 11 | 173 | 3.2 | 4.8 | 0.00 | 0.00 | 0.00 | 82 | 1007.7 |
| 20260505080906 | 11 | 144 | 4.8 | 4.8 | 0.00 | 0.00 | 0.00 | 80 | 1007.8 |
| 20260505080405 | 11 | 152 | 0.0 | 1.6 | 0.00 | 0.00 | 0.00 | 80 | 1007.6 |
| 20260505075905 | 11 | 152 | 0.0 | 1.6 | 0.00 | 0.00 | 0.00 | 80 | 1007.6 |
| 20260505074905 | 11 | 152 | 0.0 | 1.6 | 0.00 | 0.00 | 0.00 | 80 | 1007.5 |
| 20260505074406 | 11 | 152 | 1.6 | 3.2 | 0.00 | 0.00 | 0.00 | 79 | 1007.4 |
| 20260505072906 | 12 | 157 | 0.0 | 1.6 | 0.00 | 0.00 | 0.00 | 78 | 1007.5 |
| 20260505070906 | 12 | 148 | 1.6 | 4.8 | 0.00 | 0.00 | 0.00 | 76 | 1007.3 |
| 20260505070407 | 12 | 178 | 0.0 | 1.6 | 0.00 | 0.00 | 0.00 | 76 | 1007.2 |
| 20260505065407 | 13 | 178 | 0.0 | 1.6 | 0.00 | 0.00 | 0.00 | 75 | 1007.1 |
| 20260505063907 | 13 | 180 | 0.0 | 1.6 | 0.00 | 0.00 | 0.00 | 74 | 1006.9 |
| 20260505063406 | 13 | 180 | 0.0 | 4.8 | 0.00 | 0.00 | 0.00 | 74 | 1006.8 |
| 20260505062406 | 13 | 135 | 3.2 | 4.8 | 0.00 | 0.00 | 0.00 | 74 | 1006.8 |
| 20260505061907 | 13 | 146 | 3.2 | 8.0 | 0.00 | 0.00 | 0.00 | 73 | 1006.8 |
| 20260505061406 | 14 | 149 | 3.2 | 4.8 | 0.00 | 0.00 | 0.00 | 72 | 1006.7 |
| 20260505060907 | 14 | 159 | 0.0 | 1.6 | 0.00 | 0.00 | 0.00 | 71 | 1006.7 |
| 20260505060406 | 14 | 159 | 1.6 | 4.8 | 0.00 | 0.00 | 0.00 | 71 | 1006.7 |
| 20260505055407 | 15 | 150 | 3.2 | 4.8 | 0.00 | 0.00 | 0.00 | 70 | 1006.6 |
| 20260505054906 | 15 | 144 | 3.2 | 4.8 | 0.00 | 0.00 | 0.00 | 69 | 1006.5 |
| 20260505053906 | 15 | 186 | 0.0 | 1.6 | 0.00 | 0.00 | 0.00 | 68 | 1006.5 |
| 20260505053406 | 15 | 186 | 0.0 | 1.6 | 0.00 | 0.00 | 0.00 | 68 | 1006.4 |
| 20260505052906 | 16 | 186 | 0.0 | 1.6 | 0.00 | 0.00 | 0.00 | 66 | 1006.4 |
| 20260505051906 | 16 | 183 | 3.2 | 4.8 | 0.00 | 0.00 | 0.00 | 66 | 1006.3 |
| 20260505051406 | 16 | 151 | 3.2 | 4.8 | 0.00 | 0.00 | 0.00 | 64 | 1006.3 |
| 20260505050406 | 16 | 159 | 6.4 | 9.7 | 0.00 | 0.00 | 0.00 | 63 | 1006.3 |
| 20260505041406 | 18 | 213 | 8.0 | 11.3 | 0.00 | 0.00 | 0.00 | 57 | 1005.4 |
| 20260505040906 | 18 | 146 | 3.2 | 4.8 | 0.00 | 0.00 | 0.00 | 56 | 1005.3 |
| 20260505040406 | 19 | 136 | 3.2 | 8.0 | 0.00 | 0.00 | 0.00 | 56 | 1005.3 |
| 20260505035905 | 19 | 185 | 4.8 | 8.0 | 0.00 | 0.00 | 0.00 | 55 | 1005.3 |
| 20260505035406 | 20 | 244 | 3.2 | 4.8 | 0.00 | 0.00 | 0.00 | 54 | 1005.2 |
| 20260505034905 | 20 | 153 | 1.6 | 4.8 | 0.00 | 0.00 | 0.00 | 54 | 1005.1 |
| 20260505034405 | 20 | 164 | 3.2 | 12.9 | 0.00 | 0.00 | 0.00 | 53 | 1004.9 |
| 20260505033906 | 20 | 211 | 8.0 | 11.3 | 0.00 | 0.00 | 0.00 | 52 | 1004.7 |
| 20260505033406 | 21 | 141 | 3.2 | 12.9 | 0.00 | 0.00 | 0.00 | 52 | 1004.6 |
| 20260505032906 | 21 | 132 | 11.3 | 14.5 | 0.00 | 0.00 | 0.00 | 50 | 1004.6 |
| 20260505032405 | 21 | 192 | 8.0 | 12.9 | 0.00 | 0.00 | 0.00 | 48 | 1004.4 |
| 20260505031905 | 21 | 170 | 9.7 | 14.5 | 0.00 | 0.00 | 0.00 | 47 | 1004.4 |
| 20260505031405 | 22 | 180 | 8.0 | 12.9 | 0.00 | 0.00 | 0.00 | 44 | 1004.3 |
| 20260505030905 | 22 | 204 | 3.2 | 4.8 | 0.00 | 0.00 | 0.00 | 46 | 1004.3 |
| 20260505030405 | 23 | 182 | 3.2 | 4.8 | 0.00 | 0.00 | 0.00 | 45 | 1004.2 |
| 20260505025905 | 23 | 107 | 3.2 | 4.8 | 0.00 | 0.00 | 0.00 | 46 | 1004.2 |
| 20260505025405 | 23 | 102 | 3.2 | 4.8 | 0.00 | 0.00 | 0.00 | 43 | 1004.1 |
| 20260505024906 | 23 | 140 | 1.6 | 4.8 | 0.00 | 0.00 | 0.00 | 44 | 1004.1 |
| 20260505024405 | 23 | 127 | 3.2 | 8.0 | 0.00 | 0.00 | 0.00 | 43 | 1004.0 |
| 20260505023906 | 24 | 254 | 6.4 | 12.9 | 0.00 | 0.00 | 0.00 | 41 | 1004.0 |
| 20260505023405 | 24 | 260 | 8.0 | 14.5 | 0.00 | 0.00 | 0.00 | 41 | 1004.0 |
| 20260505022906 | 24 | 249 | 11.3 | 16.1 | 0.00 | 0.00 | 0.00 | 41 | 1004.0 |
| 20260505022405 | 25 | 272 | 11.3 | 16.1 | 0.00 | 0.00 | 0.00 | 42 | 1003.9 |
| 20260505021905 | 25 | 275 | 4.8 | 14.5 | 0.00 | 0.00 | 0.00 | 41 | 1003.9 |
| 20260505021406 | 26 | 264 | 8.0 | 11.3 | 0.00 | 0.00 | 0.00 | 41 | 1003.8 |
| 20260505020905 | 26 | 309 | 3.2 | 8.0 | 0.00 | 0.00 | 0.00 | 43 | 1003.8 |
| 20260505015905 | 27 | 276 | 4.8 | 11.3 | 0.00 | 0.00 | 0.00 | 40 | 1003.7 |
| 20260505015405 | 27 | 285 | 8.0 | 11.3 | 0.00 | 0.00 | 0.00 | 39 | 1003.7 |
| 20260505014406 | 28 | 274 | 8.0 | 12.9 | 0.00 | 0.00 | 0.00 | 36 | 1003.6 |
| 20260505013406 | 28 | 272 | 8.0 | 19.3 | 0.00 | 0.00 | 0.00 | 37 | 1003.6 |
| 20260505012905 | 28 | 293 | 4.8 | 16.1 | 0.00 | 0.00 | 0.00 | 35 | 1003.7 |
| 20260505012406 | 28 | 321 | 11.3 | 19.3 | 0.00 | 0.00 | 0.00 | 35 | 1003.7 |
| 20260505011905 | 28 | 268 | 9.7 | 14.5 | 0.00 | 0.00 | 0.00 | 35 | 1003.8 |
| 20260505011406 | 28 | 274 | 11.3 | 16.1 | 0.00 | 0.00 | 0.00 | 34 | 1003.8 |
| 20260505010905 | 28 | 279 | 9.7 | 16.1 | 0.00 | 0.00 | 0.00 | 36 | 1003.8 |
| 20260505010405 | 28 | 293 | 4.8 | 14.5 | 0.00 | 0.00 | 0.00 | 35 | 1003.8 |
| 20260505005905 | 28 | 317 | 9.7 | 19.3 | 0.00 | 0.00 | 0.00 | 34 | 1003.8 |
| 20260505004905 | 29 | 298 | 11.3 | 20.9 | 0.00 | 0.00 | 0.00 | 34 | 1003.9 |
| 20260505004405 | 29 | 283 | 4.8 | 14.5 | 0.00 | 0.00 | 0.00 | 33 | 1003.9 |
| 20260505003905 | 29 | 281 | 9.7 | 16.1 | 0.00 | 0.00 | 0.00 | 33 | 1004.0 |
| 20260505003405 | 29 | 269 | 9.7 | 19.3 | 0.00 | 0.00 | 0.00 | 32 | 1004.0 |
| 20260505002905 | 29 | 309 | 11.3 | 19.3 | 0.00 | 0.00 | 0.00 | 32 | 1003.9 |
| 20260505002405 | 29 | 257 | 3.2 | 8.0 | 0.00 | 0.00 | 0.00 | 33 | 1003.9 |
| 20260505001906 | 29 | 302 | 8.0 | 16.1 | 0.00 | 0.00 | 0.00 | 31 | 1004.0 |
| 20260505001405 | 29 | 284 | 16.1 | 24.1 | 0.00 | 0.00 | 0.00 | 32 | 1004.0 |
| 20260505000906 | 29 | 299 | 9.7 | 19.3 | 0.00 | 0.00 | 0.00 | 32 | 1004.1 |
| 20260505000406 | 29 | 336 | 4.8 | 29.0 | 0.00 | 0.00 | 0.00 | 32 | 1004.1 |
| 20260504235905 | 29 | 302 | 9.7 | 20.9 | 0.00 | 0.00 | 0.00 | 32 | 1004.1 |
| 20260504235405 | 28 | 315 | 11.3 | 22.5 | 0.00 | 0.00 | 0.00 | 31 | 1004.1 |
| 20260504234905 | 28 | 343 | 8.0 | 19.3 | 0.00 | 0.00 | 0.00 | 32 | 1004.1 |
| 20260504234406 | 29 | 254 | 14.5 | 24.1 | 0.00 | 0.00 | 0.00 | 32 | 1004.1 |
| 20260504233405 | 29 | 287 | 16.1 | 32.2 | 0.00 | 0.00 | 0.00 | 32 | 1004.1 |
| 20260504232906 | 29 | 293 | 9.7 | 20.9 | 0.00 | 0.00 | 0.00 | 34 | 1004.2 |
| 20260504232405 | 29 | 319 | 9.7 | 22.5 | 0.00 | 0.00 | 0.00 | 31 | 1004.1 |
| 20260504231906 | 29 | 289 | 8.0 | 22.5 | 0.00 | 0.00 | 0.00 | 32 | 1004.1 |
| 20260504231406 | 29 | 307 | 16.1 | 24.1 | 0.00 | 0.00 | 0.00 | 31 | 1004.2 |
| 20260504230905 | 29 | 341 | 11.3 | 22.5 | 0.00 | 0.00 | 0.00 | 32 | 1004.2 |
| 20260504230405 | 29 | 343 | 8.0 | 19.3 | 0.00 | 0.00 | 0.00 | 33 | 1004.2 |
| 20260504225405 | 29 | 300 | 14.5 | 24.1 | 0.00 | 0.00 | 0.00 | 30 | 1004.2 |
| 20260504224906 | 29 | 300 | 11.3 | 22.5 | 0.00 | 0.00 | 0.00 | 31 | 1004.2 |
| 20260504224406 | 29 | 259 | 14.5 | 20.9 | 0.00 | 0.00 | 0.00 | 31 | 1004.2 |
| 20260504223906 | 29 | 238 | 11.3 | 24.1 | 0.00 | 0.00 | 0.00 | 32 | 1004.2 |
| 20260504223406 | 29 | 266 | 14.5 | 19.3 | 0.00 | 0.00 | 0.00 | 30 | 1004.4 |
| 20260504222906 | 29 | 210 | 9.7 | 12.9 | 0.00 | 0.00 | 0.00 | 33 | 1004.5 |
| 20260504222406 | 29 | 231 | 6.4 | 12.9 | 0.00 | 0.00 | 0.00 | 32 | 1004.6 |
| 20260504221906 | 29 | 195 | 9.7 | 14.5 | 0.00 | 0.00 | 0.00 | 33 | 1004.5 |
| 20260504221406 | 29 | 226 | 8.0 | 12.9 | 0.00 | 0.00 | 0.00 | 32 | 1004.7 |
| 20260504220906 | 29 | 224 | 8.0 | 14.5 | 0.00 | 0.00 | 0.00 | 33 | 1004.8 |
| 20260504220407 | 29 | 281 | 8.0 | 14.5 | 0.00 | 0.00 | 0.00 | 33 | 1004.7 |
| 20260504215906 | 29 | 288 | 9.7 | 19.3 | 0.00 | 0.00 | 0.00 | 34 | 1004.8 |
| 20260504215406 | 28 | 239 | 9.7 | 16.1 | 0.00 | 0.00 | 0.00 | 33 | 1004.9 |
| 20260504214907 | 29 | 269 | 14.5 | 20.9 | 0.00 | 0.00 | 0.00 | 32 | 1005.1 |
| 20260504214406 | 28 | 290 | 9.7 | 19.3 | 0.00 | 0.00 | 0.00 | 32 | 1005.0 |
| 20260504213906 | 28 | 338 | 4.8 | 12.9 | 0.00 | 0.00 | 0.00 | 34 | 1005.1 |
| 20260504212906 | 28 | 183 | 9.7 | 16.1 | 0.00 | 0.00 | 0.00 | 37 | 1005.2 |
| 20260504212407 | 28 | 172 | 9.7 | 16.1 | 0.00 | 0.00 | 0.00 | 37 | 1005.2 |
| 20260504211907 | 28 | 241 | 11.3 | 19.3 | 0.00 | 0.00 | 0.00 | 37 | 1005.3 |
| 20260504210907 | 28 | 198 | 9.7 | 19.3 | 0.00 | 0.00 | 0.00 | 37 | 1005.4 |
| 20260504210407 | 28 | 182 | 9.7 | 19.3 | 0.00 | 0.00 | 0.00 | 37 | 1005.4 |
| 20260504204907 | 28 | 162 | 6.4 | 14.5 | 0.00 | 0.00 | 0.00 | 36 | 1005.6 |
| 20260504204406 | 28 | 115 | 9.7 | 14.5 | 0.00 | 0.00 | 0.00 | 36 | 1005.6 |
| 20260504203906 | 28 | 100 | 3.2 | 11.3 | 0.00 | 0.00 | 0.00 | 38 | 1005.7 |
| 20260504203406 | 27 | 54 | 4.8 | 11.3 | 0.00 | 0.00 | 0.00 | 37 | 1005.8 |
| 20260504202906 | 28 | 53 | 3.2 | 4.8 | 0.00 | 0.00 | 0.00 | 37 | 1005.8 |
| 20260504200906 | 27 | 134 | 3.2 | 4.8 | 0.00 | 0.00 | 0.00 | 37 | 1006.1 |
| 20260504200406 | 27 | 182 | 1.6 | 8.0 | 0.00 | 0.00 | 0.00 | 37 | 1006.2 |
| 20260504195906 | 27 | 149 | 4.8 | 8.0 | 0.00 | 0.00 | 0.00 | 37 | 1006.1 |
| 20260504195407 | 27 | 172 | 8.0 | 11.3 | 0.00 | 0.00 | 0.00 | 36 | 1006.2 |
| 20260504194906 | 27 | 212 | 4.8 | 8.0 | 0.00 | 0.00 | 0.00 | 38 | 1006.3 |
| 20260504194406 | 27 | 167 | 4.8 | 11.3 | 0.00 | 0.00 | 0.00 | 36 | 1006.3 |
| 20260504193905 | 27 | 57 | 3.2 | 9.7 | 0.00 | 0.00 | 0.00 | 36 | 1006.3 |
| 20260504193405 | 27 | 155 | 4.8 | 9.7 | 0.00 | 0.00 | 0.00 | 36 | 1006.4 |
| 20260504192906 | 27 | 93 | 3.2 | 4.8 | 0.00 | 0.00 | 0.00 | 36 | 1006.5 |
| 20260504192406 | 26 | 84 | 1.6 | 4.8 | 0.00 | 0.00 | 0.00 | 37 | 1006.5 |
| 20260504191906 | 26 | 205 | 3.2 | 8.0 | 0.00 | 0.00 | 0.00 | 37 | 1006.5 |
| 20260504190906 | 26 | 282 | 4.8 | 8.0 | 0.00 | 0.00 | 0.00 | 38 | 1006.6 |
| 20260504190406 | 26 | 255 | 1.6 | 8.0 | 0.00 | 0.00 | 0.00 | 39 | 1006.7 |
| 20260504185906 | 25 | 105 | 1.6 | 4.8 | 0.00 | 0.00 | 0.00 | 39 | 1006.7 |
| 20260504185405 | 25 | 72 | 1.6 | 4.8 | 0.00 | 0.00 | 0.00 | 39 | 1006.8 |
| 20260504184906 | 25 | 46 | 1.6 | 4.8 | 0.00 | 0.00 | 0.00 | 39 | 1006.9 |
| 20260504184406 | 24 | 40 | 3.2 | 4.8 | 0.00 | 0.00 | 0.00 | 40 | 1006.9 |
| 20260504183905 | 24 | 130 | 1.6 | 4.8 | 0.00 | 0.00 | 0.00 | 40 | 1006.9 |
| 20260504183406 | 24 | 71 | 3.2 | 4.8 | 0.00 | 0.00 | 0.00 | 40 | 1007.0 |
| 20260504182906 | 25 | 48 | 3.2 | 9.7 | 0.00 | 0.00 | 0.00 | 42 | 1007.0 |
| 20260504182405 | 24 | 77 | 3.2 | 4.8 | 0.00 | 0.00 | 0.00 | 41 | 1007.1 |
| 20260504181906 | 24 | 113 | 3.2 | 4.8 | 0.00 | 0.00 | 0.00 | 41 | 1007.2 |
| 20260504181405 | 23 | 357 | 1.6 | 4.8 | 0.00 | 0.00 | 0.00 | 40 | 1007.2 |
| 20260504180405 | 23 | 156 | 1.6 | 4.8 | 0.00 | 0.00 | 0.00 | 41 | 1007.2 |
| 20260504175906 | 23 | 329 | 4.8 | 8.0 | 0.00 | 0.00 | 0.00 | 40 | 1007.3 |
| 20260504175406 | 23 | 173 | 3.2 | 8.0 | 0.00 | 0.00 | 0.00 | 42 | 1007.4 |
| 20260504173905 | 23 | 46 | 1.6 | 4.8 | 0.00 | 0.00 | 0.00 | 46 | 1007.4 |
| 20260504173406 | 22 | 33 | 3.2 | 4.8 | 0.00 | 0.00 | 0.00 | 46 | 1007.5 |
| 20260504172406 | 22 | 39 | 1.6 | 4.8 | 0.00 | 0.00 | 0.00 | 47 | 1007.5 |
| 20260504171905 | 22 | 30 | 3.2 | 4.8 | 0.00 | 0.00 | 0.00 | 48 | 1007.6 |
| 20260504171405 | 22 | 123 | 1.6 | 4.8 | 0.00 | 0.00 | 0.00 | 49 | 1007.6 |
| 20260504170905 | 21 | 131 | 3.2 | 4.8 | 0.00 | 0.00 | 0.00 | 50 | 1007.6 |
| 20260504160406 | 18 | 358 | 3.2 | 8.0 | 0.00 | 0.00 | 0.00 | 53 | 1008.1 |
| 20260504150906 | 14 | 80 | 3.2 | 4.8 | 0.00 | 0.00 | 0.00 | 66 | 1008.7 |
| 20260504150405 | 14 | 108 | 4.8 | 9.7 | 0.00 | 0.00 | 0.00 | 67 | 1008.8 |
| 20260504140905 | 10 | 144 | 0.0 | 1.6 | 0.00 | 0.00 | 0.00 | 79 | 1008.8 |
| 20260504130407 | 7 | 192 | 6.4 | 9.7 | 0.00 | 0.00 | 0.00 | 86 | 1008.4 |
| 20260504110406 | 7 | 144 | 0.0 | 0.0 | 0.00 | 0.00 | 0.00 | 83 | 1008.5 |